Weather WX

World > North America > United States > Ohio

Fremont, Ohio Regional Weather

Lat: 41.35N, Lon: 83.11W
Wx Zone: OHZ008
Warning FLW WEATHER ALERT - FLASH FLOOD WATCH (More Info. Click Here) Warning
Feedback

Fremont, OH Regional Weather

Expires:201906160300;;137793
ASUS41 KCLE 160212
RWRCLE
OHIO REGIONAL WEATHER ROUNDUP
NATIONAL WEATHER SERVICE WILMINGTON, OH
1000 PM EDT SAT JUN 15 2019

NOTE: "FAIR" INDICATES FEW OR NO CLOUDS BELOW 12,000 FEET WITH NO
SIGNIFICANT WEATHER AND/OR OBSTRUCTIONS TO VISIBILITY.


OHZ001>008-015>018-024>027-034-035-043-044-160300-
   NORTHWEST OHIO
  
CITY           SKY/WX    TMP DP  RH WIND       PRES   REMARKS
DEFIANCE       CLOUDY    69  64  84 E5        29.82R                  
FINDLAY        RAIN      68  66  93 SE9       29.83S FOG              
TOLEDO EXPRESS CLOUDY    68  64  87 CALM      29.83S                  
TOLEDO EXEC    CLOUDY    65  65 100 S6        29.85R FOG              
LIMA           HVY RAIN  67  65  93 S7        29.83S FOG              
$$
 

SKY/WX - Weather  TMP - Temperature  DP - Dew Point  RH - Relative Humidity
WIND - Wind Direction/Speed PRES - Barometric Pressure VSB - Visibility
WCI - Wind Chill Index E13G22 Wind - East Wind 13 mph/Gusts of 22 mph